WXM80 ListenWXM80 Stop

You find our weather info also at:

UK Metoffice

WeatherCloud

Weather Underground

Northeastern Weather Network

AWEKAS

Citizen Weather Observer Program (CWOP)

HAMweather, WeatherForYou, PWS Weather


Weather Underground History page Text

Daily Summary for February 8, 2017 Units:  English    Metric   Both
« Previous Day
Next Day »
Daily Weekly Monthly Yearly Custom
  High: Low: Average:
Temperature: 60.1 °F 37.7 °F 45.1 °F
Dew Point: 52.5 °F 34.9 °F 39.9 °F
Humidity: 99 % 57 % 84 %
Wind Speed: 7.1 mph 0.0 mph 1.8 mph
Wind Gust: 12.0 mph - -
Wind:- - SSW
Pressure: 29.70 in 29.50 in -
Precipitation: 0.00 in    
Historical Graphs
 
 
Tabular Data for February 8, 2017
Time Temperature Dew Point Pressure Wind Wind Speed Wind Gust Humidity Rainfall Rate (Hourly)
00:03 38.8 °F 38.3 °F 29.59 in SE 1.1 mph 3.5 mph 98 % 0.00 in
00:08 38.8 °F 38.3 °F 29.58 in ENE 3.9 mph 5.8 mph 98 % 0.00 in
00:13 38.8 °F 38.3 °F 29.58 in ENE 2.4 mph 3.5 mph 98 % 0.00 in
00:18 38.8 °F 38.3 °F 29.57 in ENE 2.9 mph 3.5 mph 98 % 0.00 in
00:23 38.8 °F 38.3 °F 29.57 in East 2.3 mph 3.5 mph 98 % 0.00 in
00:28 38.7 °F 38.2 °F 29.56 in NE 2.4 mph 3.5 mph 98 % 0.00 in
00:33 38.7 °F 38.2 °F 29.56 in ENE 2.9 mph 3.5 mph 98 % 0.00 in
00:38 38.7 °F 38.2 °F 29.56 in ENE 2.8 mph 3.5 mph 98 % 0.00 in
00:43 38.7 °F 38.2 °F 29.56 in NE 1.6 mph 1.6 mph 98 % 0.00 in
00:48 38.6 °F 38.1 °F 29.55 in ENE 1.0 mph 4.0 mph 98 % 0.00 in
00:53 38.7 °F 38.1 °F 29.55 in ENE 2.0 mph 3.0 mph 98 % 0.00 in
00:58 38.7 °F 38.2 °F 29.56 in ENE 0.5 mph 3.5 mph 98 % 0.00 in
01:04 38.6 °F 38.1 °F 29.55 in ENE 0.2 mph 1.2 mph 98 % 0.00 in
01:09 38.6 °F 38.1 °F 29.55 in ENE 0.9 mph 2.3 mph 98 % 0.00 in
01:14 38.6 °F 38.1 °F 29.55 in Calm     98 % 0.00 in
01:19 38.6 °F 38.1 °F 29.55 in Calm     98 % 0.00 in
01:24 38.5 °F 38.0 °F 29.55 in ENE 0.1 mph 2.0 mph 98 % 0.00 in
01:29 38.5 °F 38.0 °F 29.54 in Calm     98 % 0.00 in
01:34 38.4 °F 37.9 °F 29.54 in Calm   1.2 mph 98 % 0.00 in
01:39 38.3 °F 37.8 °F 29.54 in Calm     98 % 0.00 in
01:44 38.3 °F 37.8 °F 29.53 in Calm     98 % 0.00 in
01:49 38.3 °F 37.8 °F 29.53 in ENE 0.7 mph 2.3 mph 98 % 0.00 in
01:54 38.3 °F 37.8 °F 29.54 in Calm   1.2 mph 98 % 0.00 in
01:59 38.3 °F 37.8 °F 29.53 in Calm   1.2 mph 98 % 0.00 in
02:04 38.3 °F 37.8 °F 29.53 in ENE 1.7 mph 3.0 mph 98 % 0.00 in
02:09 38.4 °F 37.9 °F 29.53 in Calm   1.2 mph 98 % 0.00 in
02:14 38.4 °F 37.9 °F 29.53 in NNE 0.4 mph 1.2 mph 98 % 0.00 in
02:19 38.4 °F 37.9 °F 29.53 in Calm     98 % 0.00 in
02:24 38.5 °F 38.0 °F 29.53 in Calm     98 % 0.00 in
02:29 38.6 °F 38.1 °F 29.53 in Calm     98 % 0.00 in
02:34 38.6 °F 38.1 °F 29.53 in Calm     98 % 0.00 in
02:39 38.6 °F 38.1 °F 29.53 in Calm     98 % 0.00 in
02:44 38.6 °F 38.1 °F 29.53 in Calm     98 % 0.00 in
02:49 38.6 °F 38.1 °F 29.53 in Calm     98 % 0.00 in
02:55 38.6 °F 38.1 °F 29.52 in Calm     98 % 0.00 in
03:00 38.7 °F 38.2 °F 29.52 in Calm     98 % 0.00 in
03:05 38.7 °F 38.2 °F 29.53 in Calm     98 % 0.00 in
03:10 38.7 °F 38.2 °F 29.52 in Calm     98 % 0.00 in
03:15 38.7 °F 38.2 °F 29.52 in NNE 0.2 mph 1.2 mph 98 % 0.00 in
03:20 38.8 °F 38.3 °F 29.52 in Calm     98 % 0.00 in
03:25 38.8 °F 38.3 °F 29.52 in Calm     98 % 0.00 in
03:30 38.8 °F 38.3 °F 29.52 in Calm     98 % 0.00 in
03:35 38.8 °F 38.3 °F 29.52 in Calm     98 % 0.00 in
03:40 38.9 °F 38.4 °F 29.52 in Calm     98 % 0.00 in
03:45 38.9 °F 38.4 °F 29.52 in NNE 0.9 mph 2.3 mph 98 % 0.00 in
03:50 38.9 °F 38.4 °F 29.53 in Calm   1.2 mph 98 % 0.00 in
03:55 38.9 °F 38.4 °F 29.52 in Calm     98 % 0.00 in
04:00 38.9 °F 38.4 °F 29.53 in Calm     98 % 0.00 in
04:05 39.0 °F 38.5 °F 29.52 in Calm     98 % 0.00 in
04:10 39.0 °F 38.5 °F 29.51 in Calm     98 % 0.00 in
04:15 39.0 °F 38.5 °F 29.51 in NNE 0.3 mph 1.0 mph 98 % 0.00 in
04:20 39.0 °F 38.5 °F 29.51 in Calm   1.2 mph 98 % 0.00 in
04:25 39.0 °F 38.5 °F 29.52 in Calm     98 % 0.00 in
04:30 39.0 °F 38.5 °F 29.51 in Calm     98 % 0.00 in
04:35 38.9 °F 38.4 °F 29.51 in Calm     98 % 0.00 in
04:40 38.9 °F 38.4 °F 29.51 in NNE 0.1 mph 1.2 mph 98 % 0.00 in
04:45 38.9 °F 38.4 °F 29.51 in NNE 0.4 mph 1.2 mph 98 % 0.00 in
04:50 38.9 °F 38.4 °F 29.51 in Calm   1.2 mph 98 % 0.00 in
04:55 38.8 °F 38.3 °F 29.51 in Calm   1.0 mph 98 % 0.00 in
05:01 38.8 °F 38.3 °F 29.51 in Calm   1.2 mph 98 % 0.00 in
05:06 38.7 °F 38.2 °F 29.51 in Calm     98 % 0.00 in
05:11 38.7 °F 38.2 °F 29.50 in Calm     98 % 0.00 in
05:16 38.6 °F 38.1 °F 29.50 in Calm     98 % 0.00 in
05:21 38.6 °F 38.1 °F 29.50 in Calm     98 % 0.00 in
05:26 38.6 °F 38.1 °F 29.50 in Calm     98 % 0.00 in
05:31 38.5 °F 38.0 °F 29.50 in Calm     98 % 0.00 in
05:36 38.5 °F 38.0 °F 29.50 in Calm     98 % 0.00 in
05:41 38.4 °F 37.9 °F 29.51 in Calm     98 % 0.00 in
05:46 38.4 °F 37.9 °F 29.51 in Calm     98 % 0.00 in
05:51 38.4 °F 37.9 °F 29.51 in NNE 0.1 mph 1.2 mph 98 % 0.00 in
05:56 38.4 °F 37.9 °F 29.51 in Calm     98 % 0.00 in
06:01 38.4 °F 37.9 °F 29.51 in NNE 0.3 mph 1.0 mph 98 % 0.00 in
06:06 38.4 °F 37.9 °F 29.52 in Calm     98 % 0.00 in
06:11 38.4 °F 37.9 °F 29.51 in Calm     98 % 0.00 in
06:16 38.4 °F 37.9 °F 29.52 in Calm     98 % 0.00 in
06:21 38.4 °F 37.9 °F 29.52 in Calm     98 % 0.00 in
06:26 38.3 °F 37.8 °F 29.53 in Calm     98 % 0.00 in
06:27 38.3 °F 37.8 °F 29.53 in Calm     98 % 0.00 in
06:32 38.3 °F 37.8 °F 29.53 in Calm     98 % 0.00 in
06:37 38.3 °F 37.8 °F 29.54 in Calm     98 % 0.00 in
06:42 38.2 °F 37.7 °F 29.54 in Calm     98 % 0.00 in
06:47 38.2 °F 37.7 °F 29.54 in Calm     98 % 0.00 in
06:52 38.2 °F 37.7 °F 29.54 in Calm     98 % 0.00 in
06:57 38.1 °F 37.6 °F 29.54 in Calm     98 % 0.00 in
07:02 38.1 °F 37.6 °F 29.55 in Calm     98 % 0.00 in
07:07 38.0 °F 37.5 °F 29.55 in Calm     98 % 0.00 in
07:12 38.0 °F 37.5 °F 29.55 in Calm     98 % 0.00 in
07:17 37.9 °F 37.4 °F 29.55 in Calm     98 % 0.00 in
07:22 37.9 °F 37.4 °F 29.56 in Calm     98 % 0.00 in
07:27 37.8 °F 37.3 °F 29.56 in Calm     98 % 0.00 in
07:32 37.8 °F 37.3 °F 29.55 in Calm     98 % 0.00 in
07:37 37.8 °F 37.3 °F 29.56 in NNE 0.7 mph 2.3 mph 98 % 0.00 in
07:42 37.7 °F 37.2 °F 29.55 in NNE 0.8 mph 2.3 mph 98 % 0.00 in
07:43 37.7 °F 37.2 °F 29.55 in NNE 0.8 mph 2.3 mph 98 % 0.00 in
07:48 37.7 °F 37.2 °F 29.55 in Calm   2.0 mph 98 % 0.00 in
07:53 37.7 °F 37.2 °F 29.55 in Calm   2.0 mph 98 % 0.00 in
07:58 37.7 °F 37.2 °F 29.55 in Calm     98 % 0.00 in
08:03 37.8 °F 37.3 °F 29.55 in Calm   1.2 mph 98 % 0.00 in
08:08 37.8 °F 37.3 °F 29.55 in Calm     98 % 0.00 in
08:14 37.9 °F 37.4 °F 29.55 in Calm     98 % 0.00 in
08:19 38.0 °F 37.5 °F 29.55 in Calm     98 % 0.00 in
08:24 38.1 °F 37.6 °F 29.55 in Calm     98 % 0.00 in
08:29 38.3 °F 37.8 °F 29.56 in Calm     98 % 0.00 in
08:34 38.4 °F 37.9 °F 29.56 in Calm     98 % 0.00 in
08:39 38.5 °F 38.0 °F 29.56 in Calm     98 % 0.00 in
08:44 38.6 °F 38.1 °F 29.57 in NNE 0.1 mph 1.2 mph 98 % 0.00 in
08:49 38.8 °F 38.3 °F 29.58 in Calm     98 % 0.00 in
08:54 39.2 °F 38.7 °F 29.58 in Calm   2.0 mph 98 % 0.00 in
08:59 39.8 °F 39.3 °F 29.58 in Calm     98 % 0.00 in
09:04 39.9 °F 39.4 °F 29.58 in Calm     98 % 0.00 in
09:09 40.2 °F 39.7 °F 29.58 in South 0.2 mph 1.2 mph 98 % 0.00 in
09:14 40.6 °F 40.1 °F 29.58 in Calm   1.2 mph 98 % 0.00 in
09:19 41.0 °F 40.5 °F 29.58 in South 1.6 mph 2.0 mph 98 % 0.00 in
09:24 41.5 °F 41.0 °F 29.58 in Calm     98 % 0.00 in
09:29 42.0 °F 41.5 °F 29.58 in SW 0.2 mph 1.2 mph 98 % 0.00 in
09:34 42.7 °F 42.2 °F 29.58 in WNW 0.8 mph 3.5 mph 98 % 0.00 in
09:39 43.7 °F 43.4 °F 29.59 in NNW 1.9 mph 3.5 mph 99 % 0.00 in
09:44 43.6 °F 43.1 °F 29.60 in NW 0.7 mph 3.5 mph 98 % 0.00 in
09:49 43.3 °F 42.8 °F 29.60 in WNW 2.2 mph 5.8 mph 98 % 0.00 in
09:54 43.2 °F 42.7 °F 29.61 in WNW 1.7 mph 3.5 mph 98 % 0.00 in
10:00 43.1 °F 42.6 °F 29.61 in WNW 0.6 mph 2.0 mph 98 % 0.00 in
10:05 43.1 °F 42.6 °F 29.61 in WNW 0.6 mph 2.3 mph 98 % 0.00 in
10:10 42.9 °F 42.4 °F 29.61 in WNW 2.3 mph 4.0 mph 98 % 0.00 in
10:15 42.8 °F 42.3 °F 29.61 in WNW 1.7 mph 3.5 mph 98 % 0.00 in
10:20 42.8 °F 42.3 °F 29.62 in Calm     98 % 0.00 in
10:25 42.9 °F 42.4 °F 29.62 in WNW 1.0 mph 2.3 mph 98 % 0.00 in
10:30 43.2 °F 42.7 °F 29.62 in WNW 0.7 mph 1.2 mph 98 % 0.00 in
10:35 43.9 °F 43.4 °F 29.62 in WNW 0.7 mph 3.5 mph 98 % 0.00 in
10:40 44.8 °F 44.3 °F 29.62 in West 3.4 mph 3.5 mph 98 % 0.00 in
10:45 45.7 °F 45.2 °F 29.62 in WSW 1.8 mph 4.6 mph 98 % 0.00 in
10:50 46.7 °F 46.2 °F 29.62 in West 0.8 mph 3.5 mph 98 % 0.00 in
10:55 47.4 °F 47.1 °F 29.62 in SSW 1.7 mph 5.8 mph 99 % 0.00 in
11:00 48.3 °F 47.8 °F 29.62 in SW 4.4 mph 6.9 mph 98 % 0.00 in
11:05 49.3 °F 48.8 °F 29.63 in WSW 3.0 mph 3.5 mph 98 % 0.00 in
11:10 50.0 °F 49.5 °F 29.62 in WNW 3.4 mph 4.0 mph 98 % 0.00 in
11:15 50.4 °F 50.1 °F 29.62 in WSW 1.9 mph 3.5 mph 99 % 0.00 in
11:20 51.0 °F 50.7 °F 29.62 in WSW 3.7 mph 6.9 mph 99 % 0.00 in
11:25 51.4 °F 51.1 °F 29.62 in WNW 2.5 mph 4.6 mph 99 % 0.00 in
11:31 51.9 °F 51.6 °F 29.62 in WNW 1.1 mph 3.5 mph 99 % 0.00 in
11:36 52.4 °F 51.9 °F 29.62 in SW 2.1 mph 4.6 mph 98 % 0.00 in
11:41 52.8 °F 52.3 °F 29.62 in WSW 0.6 mph 2.3 mph 98 % 0.00 in
11:46 53.3 °F 52.5 °F 29.61 in West 1.4 mph 4.0 mph 97 % 0.00 in
11:51 53.9 °F 52.5 °F 29.61 in West 4.6 mph 5.8 mph 95 % 0.00 in
11:56 54.4 °F 51.8 °F 29.61 in West 0.3 mph 2.3 mph 91 % 0.00 in
12:01 54.8 °F 51.3 °F 29.61 in WSW 4.2 mph 4.6 mph 88 % 0.00 in
12:06 55.2 °F 51.1 °F 29.61 in WSW 2.8 mph 5.0 mph 86 % 0.00 in
12:11 55.5 °F 51.1 °F 29.61 in WNW 2.3 mph 6.9 mph 85 % 0.00 in
12:16 55.7 °F 50.6 °F 29.61 in West 5.1 mph 9.2 mph 83 % 0.00 in
12:21 55.9 °F 50.5 °F 29.61 in SW 2.1 mph 5.0 mph 82 % 0.00 in
12:26 56.3 °F 50.2 °F 29.61 in WNW 3.8 mph 5.8 mph 80 % 0.00 in
12:31 56.6 °F 49.5 °F 29.62 in WNW 4.5 mph 6.9 mph 77 % 0.00 in
12:36 56.9 °F 49.1 °F 29.62 in WNW 2.6 mph 6.0 mph 75 % 0.00 in
12:41 57.0 °F 48.4 °F 29.62 in WNW 3.0 mph 5.8 mph 73 % 0.00 in
12:46 57.1 °F 47.8 °F 29.62 in NW 3.3 mph 6.9 mph 71 % 0.00 in
12:51 57.3 °F 47.6 °F 29.62 in WNW 3.1 mph 8.1 mph 70 % 0.00 in
12:57 57.5 °F 47.4 °F 29.62 in WNW 2.9 mph 6.0 mph 69 % 0.00 in
13:02 57.7 °F 47.2 °F 29.62 in West 2.6 mph 4.6 mph 68 % 0.00 in
13:07 57.8 °F 46.9 °F 29.62 in WSW 3.0 mph 5.0 mph 67 % 0.00 in
13:12 58.2 °F 47.3 °F 29.61 in West 1.0 mph 2.3 mph 67 % 0.00 in
13:17 58.5 °F 47.6 °F 29.61 in WSW 2.6 mph 4.6 mph 67 % 0.00 in
13:22 58.7 °F 47.0 °F 29.61 in WNW 3.5 mph 6.9 mph 65 % 0.00 in
13:27 59.0 °F 46.8 °F 29.61 in WNW 1.1 mph 4.6 mph 64 % 0.00 in
13:32 59.2 °F 46.6 °F 29.61 in WNW 2.0 mph 4.0 mph 63 % 0.00 in
13:37 59.5 °F 46.5 °F 29.61 in West 4.4 mph 5.8 mph 62 % 0.00 in
13:42 59.7 °F 46.7 °F 29.61 in WNW 2.8 mph 6.9 mph 62 % 0.00 in
13:47 59.9 °F 46.0 °F 29.61 in West 3.5 mph 6.9 mph 60 % 0.00 in
13:52 60.0 °F 46.1 °F 29.61 in WNW 3.9 mph 5.0 mph 60 % 0.00 in
13:57 60.1 °F 45.3 °F 29.61 in WNW 3.7 mph 8.1 mph 58 % 0.00 in
14:02 60.0 °F 45.2 °F 29.61 in WSW 5.4 mph 11.5 mph 58 % 0.00 in
14:07 59.9 °F 44.6 °F 29.61 in WSW 3.9 mph 7.0 mph 57 % 0.00 in
14:13 59.8 °F 45.0 °F 29.61 in WNW 4.1 mph 9.2 mph 58 % 0.00 in
14:18 59.8 °F 45.0 °F 29.61 in West 5.4 mph 6.9 mph 58 % 0.00 in
14:23 59.8 °F 45.0 °F 29.61 in WSW 5.0 mph 6.0 mph 58 % 0.00 in
14:28 59.7 °F 44.4 °F 29.61 in NW 6.5 mph 11.5 mph 57 % 0.00 in
14:33 59.5 °F 44.7 °F 29.61 in WNW 2.4 mph 5.8 mph 58 % 0.00 in
14:38 59.3 °F 45.4 °F 29.61 in WNW 2.6 mph 3.5 mph 60 % 0.00 in
14:43 59.2 °F 44.9 °F 29.61 in WNW 1.0 mph 3.5 mph 59 % 0.00 in
14:48 59.1 °F 44.8 °F 29.61 in WNW 1.5 mph 3.5 mph 59 % 0.00 in
14:53 58.9 °F 44.1 °F 29.61 in NNW 3.1 mph 5.8 mph 58 % 0.00 in
14:58 58.6 °F 43.9 °F 29.61 in WNW 5.1 mph 10.0 mph 58 % 0.00 in
15:03 58.2 °F 43.5 °F 29.62 in WNW 3.7 mph 9.2 mph 58 % 0.00 in
15:08 57.7 °F 43.5 °F 29.62 in West 3.2 mph 5.8 mph 59 % 0.00 in
15:13 57.2 °F 43.0 °F 29.62 in NW 3.0 mph 8.0 mph 59 % 0.00 in
15:18 56.7 °F 42.6 °F 29.62 in NW 3.0 mph 9.0 mph 59 % 0.00 in
15:23 56.1 °F 42.4 °F 29.62 in NNW 3.0 mph 10.0 mph 60 % 0.00 in
15:28 55.6 °F 41.9 °F 29.62 in North 3.0 mph 10.4 mph 60 % 0.00 in
15:33 55.3 °F 42.1 °F 29.62 in NW 2.0 mph 8.0 mph 61 % 0.00 in
15:38 55.0 °F 42.2 °F 29.62 in NW 3.0 mph 8.0 mph 62 % 0.00 in
15:43 54.8 °F 41.6 °F 29.62 in NW 3.0 mph 8.0 mph 61 % 0.00 in
15:48 54.6 °F 41.4 °F 29.62 in NW 2.0 mph 7.0 mph 61 % 0.00 in
15:53 54.4 °F 41.2 °F 29.62 in North 4.5 mph 8.0 mph 61 % 0.00 in
15:58 54.0 °F 41.3 °F 29.62 in North 3.7 mph 6.9 mph 62 % 0.00 in
16:03 53.7 °F 41.0 °F 29.63 in NW 3.8 mph 5.8 mph 62 % 0.00 in
16:08 53.4 °F 41.2 °F 29.63 in NW 1.0 mph 5.0 mph 63 % 0.00 in
16:13 53.1 °F 40.8 °F 29.63 in NW 3.0 mph 12.0 mph 63 % 0.00 in
16:18 52.7 °F 40.5 °F 29.63 in NW 5.0 mph 10.0 mph 63 % 0.00 in
16:23 52.6 °F 39.9 °F 29.64 in NW 3.0 mph 10.0 mph 62 % 0.00 in
16:28 52.4 °F 40.2 °F 29.64 in NW 2.0 mph 6.0 mph 63 % 0.00 in
16:33 52.4 °F 40.2 °F 29.65 in NW 2.0 mph 7.0 mph 63 % 0.00 in
16:38 52.3 °F 40.1 °F 29.65 in NW 3.0 mph 7.0 mph 63 % 0.00 in
16:43 52.0 °F 40.2 °F 29.66 in NW 1.0 mph 6.0 mph 64 % 0.00 in
16:48 51.7 °F 39.9 °F 29.66 in NW 3.0 mph 5.0 mph 64 % 0.00 in
16:53 51.5 °F 39.7 °F 29.66 in NNW 5.0 mph 9.0 mph 64 % 0.00 in
16:58 51.2 °F 39.8 °F 29.66 in NW 2.6 mph 3.5 mph 65 % 0.00 in
17:03 51.0 °F 40.0 °F 29.66 in NNW 4.2 mph 8.1 mph 66 % 0.00 in
17:08 50.8 °F 40.2 °F 29.66 in Calm   6.0 mph 67 % 0.00 in
17:13 50.5 °F 39.9 °F 29.66 in WNW 2.0 mph 5.0 mph 67 % 0.00 in
17:18 50.3 °F 39.7 °F 29.66 in NW 1.0 mph 5.0 mph 67 % 0.00 in
17:23 49.9 °F 39.8 °F 29.66 in NNW 2.0 mph 7.0 mph 68 % 0.00 in
17:28 49.6 °F 39.5 °F 29.66 in NW 2.0 mph 8.0 mph 68 % 0.00 in
17:33 49.4 °F 39.3 °F 29.66 in NW 2.0 mph 9.0 mph 68 % 0.00 in
17:38 49.1 °F 39.4 °F 29.66 in NNW 2.0 mph 5.0 mph 69 % 0.00 in
17:43 48.9 °F 38.8 °F 29.66 in NW 2.0 mph 8.0 mph 68 % 0.00 in
17:48 48.7 °F 38.9 °F 29.66 in NW 2.0 mph 4.0 mph 69 % 0.00 in
17:53 48.4 °F 38.7 °F 29.66 in NW 3.0 mph 7.0 mph 69 % 0.00 in
17:58 48.2 °F 37.8 °F 29.66 in NNW 2.3 mph 4.6 mph 67 % 0.00 in
18:03 48.1 °F 37.7 °F 29.66 in NNW 4.2 mph 8.1 mph 67 % 0.00 in
18:08 48.0 °F 37.2 °F 29.66 in NW 1.6 mph 3.5 mph 66 % 0.00 in
18:14 47.9 °F 37.1 °F 29.66 in NW 1.1 mph 2.3 mph 66 % 0.00 in
18:19 47.8 °F 37.0 °F 29.66 in NNW 2.4 mph 3.5 mph 66 % 0.00 in
18:24 47.7 °F 36.9 °F 29.66 in NW 2.8 mph 4.6 mph 66 % 0.00 in
18:29 47.5 °F 36.3 °F 29.66 in WNW 2.3 mph 4.6 mph 65 % 0.00 in
18:34 47.5 °F 35.9 °F 29.66 in NW 1.4 mph 4.6 mph 64 % 0.00 in
18:39 47.4 °F 35.8 °F 29.66 in NW 1.5 mph 3.5 mph 64 % 0.00 in
18:44 47.4 °F 35.8 °F 29.67 in WNW 4.2 mph 6.0 mph 64 % 0.00 in
18:49 47.5 °F 35.5 °F 29.67 in NW 2.5 mph 4.6 mph 63 % 0.00 in
18:54 47.5 °F 35.9 °F 29.67 in NNW 2.9 mph 5.8 mph 64 % 0.00 in
18:59 47.6 °F 35.6 °F 29.67 in NW 2.6 mph 4.6 mph 63 % 0.00 in
19:04 47.5 °F 35.5 °F 29.67 in NW 2.7 mph 6.9 mph 63 % 0.00 in
19:09 47.4 °F 35.4 °F 29.67 in NW 3.1 mph 6.9 mph 63 % 0.00 in
19:14 47.4 °F 36.2 °F 29.68 in NNW 3.2 mph 8.1 mph 65 % 0.00 in
19:19 47.2 °F 36.4 °F 29.67 in NW 0.9 mph 3.5 mph 66 % 0.00 in
19:24 47.0 °F 36.6 °F 29.68 in NW 2.1 mph 4.6 mph 67 % 0.00 in
19:25 47.0 °F 36.6 °F 29.67 in NW 1.7 mph 3.5 mph 67 % 0.00 in
19:30 46.7 °F 36.7 °F 29.68 in North 1.3 mph 3.5 mph 68 % 0.00 in
19:35 46.4 °F 36.8 °F 29.69 in NW 1.2 mph 2.3 mph 69 % 0.00 in
19:40 46.1 °F 37.2 °F 29.69 in NNW 1.2 mph 3.5 mph 71 % 0.00 in
19:45 45.8 °F 37.3 °F 29.69 in NNW 3.1 mph 5.8 mph 72 % 0.00 in
19:50 45.5 °F 37.3 °F 29.69 in NNW 3.2 mph 4.0 mph 73 % 0.00 in
19:55 45.1 °F 37.3 °F 29.69 in NNE 4.6 mph 6.9 mph 74 % 0.00 in
20:00 44.9 °F 37.5 °F 29.69 in North 3.6 mph 7.0 mph 75 % 0.00 in
20:05 44.6 °F 37.2 °F 29.69 in North 6.9 mph 11.5 mph 75 % 0.00 in
20:10 44.4 °F 37.0 °F 29.69 in North 6.0 mph 10.4 mph 75 % 0.00 in
20:15 44.4 °F 36.6 °F 29.69 in NNW 5.0 mph 6.9 mph 74 % 0.00 in
20:20 44.5 °F 36.4 °F 29.69 in North 5.1 mph 8.1 mph 73 % 0.00 in
20:25 44.4 °F 36.3 °F 29.69 in NNE 4.9 mph 6.9 mph 73 % 0.00 in
20:30 44.4 °F 36.3 °F 29.69 in North 5.7 mph 9.2 mph 73 % 0.00 in
20:35 44.5 °F 35.7 °F 29.69 in NNE 4.9 mph 7.0 mph 71 % 0.00 in
20:40 44.5 °F 35.7 °F 29.70 in NNE 5.3 mph 8.1 mph 71 % 0.00 in
20:45 44.5 °F 35.7 °F 29.70 in North 3.5 mph 4.6 mph 71 % 0.00 in
20:50 44.5 °F 35.7 °F 29.70 in North 3.2 mph 4.6 mph 71 % 0.00 in
20:55 44.4 °F 35.6 °F 29.70 in NNW 2.9 mph 4.6 mph 71 % 0.00 in
21:00 44.4 °F 35.6 °F 29.70 in NNW 2.6 mph 5.0 mph 71 % 0.00 in
21:05 44.3 °F 35.5 °F 29.70 in NW 1.9 mph 4.6 mph 71 % 0.00 in
21:10 44.2 °F 35.4 °F 29.70 in NNW 2.8 mph 5.0 mph 71 % 0.00 in
21:15 44.1 °F 35.6 °F 29.70 in NNE 2.5 mph 3.5 mph 72 % 0.00 in
21:20 44.0 °F 35.6 °F 29.70 in NNE 3.3 mph 7.0 mph 72 % 0.00 in
21:25 43.8 °F 35.7 °F 29.69 in North 4.3 mph 8.1 mph 73 % 0.00 in
21:30 43.7 °F 35.6 °F 29.69 in North 3.9 mph 6.9 mph 73 % 0.00 in
21:35 43.6 °F 35.5 °F 29.69 in North 3.5 mph 8.1 mph 73 % 0.00 in
21:40 43.5 °F 35.4 °F 29.69 in NNE 3.7 mph 7.0 mph 73 % 0.00 in
21:46 43.4 °F 35.7 °F 29.70 in North 3.0 mph 4.6 mph 74 % 0.00 in
21:51 43.2 °F 35.8 °F 29.70 in NNE 4.3 mph 5.8 mph 75 % 0.00 in
21:56 43.2 °F 35.8 °F 29.69 in NNE 2.1 mph 3.5 mph 75 % 0.00 in
22:01 43.0 °F 36.0 °F 29.69 in North 0.7 mph 3.5 mph 76 % 0.00 in
22:06 42.9 °F 35.9 °F 29.69 in NNE 1.0 mph 2.3 mph 76 % 0.00 in
22:11 42.7 °F 36.3 °F 29.69 in NNE 1.1 mph 2.3 mph 78 % 0.00 in
22:16 42.5 °F 36.4 °F 29.69 in NE 1.1 mph 3.5 mph 79 % 0.00 in
22:21 42.3 °F 36.3 °F 29.69 in NE 1.0 mph 2.3 mph 79 % 0.00 in
22:26 42.1 °F 36.1 °F 29.69 in NE 0.3 mph 2.3 mph 79 % 0.00 in
22:31 41.9 °F 35.9 °F 29.69 in NE 1.8 mph 3.5 mph 79 % 0.00 in
22:36 41.7 °F 35.7 °F 29.69 in NNE 2.3 mph 4.6 mph 79 % 0.00 in
22:41 41.5 °F 35.8 °F 29.68 in NNE 5.3 mph 6.9 mph 80 % 0.00 in
22:46 41.4 °F 35.7 °F 29.68 in NE 6.8 mph 9.2 mph 80 % 0.00 in
22:51 41.2 °F 35.2 °F 29.68 in NNE 5.5 mph 10.4 mph 79 % 0.00 in
22:56 41.2 °F 34.9 °F 29.68 in NNE 7.1 mph 10.4 mph 78 % 0.00 in
23:01 41.2 °F 34.9 °F 29.68 in NNE 6.1 mph 9.2 mph 78 % 0.00 in
23:06 41.2 °F 35.2 °F 29.68 in NNE 6.7 mph 8.1 mph 79 % 0.00 in
23:11 41.2 °F 35.2 °F 29.68 in ENE 3.9 mph 8.1 mph 79 % 0.00 in
23:16 41.1 °F 36.0 °F 29.68 in ENE 1.7 mph 3.5 mph 82 % 0.00 in
23:21 41.0 °F 35.9 °F 29.68 in NNE 0.6 mph 3.5 mph 82 % 0.00 in
23:26 40.9 °F 35.8 °F 29.69 in NNE 0.1 mph 1.0 mph 82 % 0.00 in
23:32 40.8 °F 35.4 °F 29.69 in NNE 3.5 mph 5.8 mph 81 % 0.00 in
23:37 40.7 °F 35.3 °F 29.69 in NNE 1.5 mph 4.6 mph 81 % 0.00 in
23:42 40.6 °F 35.2 °F 29.69 in NNE 0.6 mph 2.3 mph 81 % 0.00 in
23:47 40.5 °F 35.4 °F 29.68 in ENE 1.4 mph 3.5 mph 82 % 0.00 in
23:52 40.5 °F 35.7 °F 29.68 in ENE 2.9 mph 3.5 mph 83 % 0.00 in
23:57 40.5 °F 36.0 °F 29.69 in ENE 3.5 mph 3.5 mph 84 % 0.00 in
Crab Meadow Weather
Compliments of Weather Underground - 3 mb

Script developed by  Jim McMurry - jmcmurry@mwt.net Adapted for the template by  Wim van der Kuil - Leuven-Template.eu

Astronomy: Neptune has at least 11 moons.